Regional Weather Roundup
Issued by NWS

Home | Current Version | Previous Version | Text Only | Print | Product List | Glossary Off
Versions: 1 2 3 4 5 6 7 8 9 10 11 12 13 14 15 16 17 18 19 20 21 22 23 24 25 26 27 28 29 30 31 32 33 34 35 36 37 38 39 40 41 42 43 44 45 46 47 48 49 50

000
ASUS45 KTFX 221219
RWRMT
MONTANA HOURLY WEATHER ROUNDUP
NATIONAL WEATHER SERVICE GREAT FALLS MT
619 AM MDT TUE APR 22 2014

NOTE: "FAIR" INDICATES FEW OR NO CLOUDS BELOW 12000 FEET WITH NO
SIGNIFICANT WEATHER AND/OR OBSTRUCTIONS TO VISIBILITY.

* THESE STATIONS ARE NOT UNDER NWS QUALITY CONTROL. THEY DO NOT
   REPORT WEATHER SUCH AS PRECIPITATION OR FOG.

MTZ001>007-043-221300-
WEST OF THE DIVIDE
CITY           SKY/WX    TMP DP  RH WIND       PRES   REMARKS
KALISPELL      MOCLDY    37  30  76 W6        29.67F WCI  32
MISSOULA       CLOUDY    45  28  51 E7        29.71F
BUTTE          PTCLDY    37  27  67 CALM      29.78F
MULLAN PASS    CLOUDY    39  25  57 CALM      29.69F
* ESSEX        N/A       36  27  70 S12G17     N/A   WCI  28
* LINCOLN      N/A       30  26  85 NW1        N/A
* LOOKOUT PASS N/A       41  30  65 VRB4       N/A
* PLAINS APT   CLOUDY    39  32  76 CALM      29.69F
* POLSON       N/A       44  28  53 NE2        N/A
* RONAN APT    CLOUDY    39  32  76 N/A        N/A
* SEELEY LAKE  N/A       31  26  82 N2         N/A
* THOMP F APT  MOCLDY    45  37  74 NE6G19     N/A
$$

MTZ008-052>055-221300-
SOUTHWEST MONTANA
CITY           SKY/WX    TMP DP  RH WIND       PRES   REMARKS
BOZEMAN        CLOUDY    48  28  46 SE7       29.77F
DILLON         MOCLDY    52  28  40 NW7       29.76F
W YELLOWSTONE  N/A       41  35  79 NE3G10     N/A
* THREE FORKS  CLOUDY    50  30  46 NE5        N/A
* BOULDER HILL N/A       43  21  42 S7         N/A
* MONIDA PASS  N/A       42  34  73 S11        N/A
* RAYNOLDS PAS N/A       43  20  40 SE19G25    N/A
* WHITEHALL    N/A       44  23  43 N3G8       N/A
* WISE RIVER   N/A       33  25  72 S1         N/A
$$

MTZ009>010-012-014-046-048-049-054-221300-
EAST SLOPES AND CENTRAL MONTANA
CITY           SKY/WX    TMP DP  RH WIND       PRES   REMARKS
CUT BANK       CLOUDY    34  25  70 CALM      29.72F
GREAT FALLS    CLOUDY    46  25  44 E3        29.72F
HELENA         CLOUDY    43  27  53 SW5       29.74F
MALMSTROM AFB  CLOUDY    43  27  53 SE3       29.70F
* CONRAD       CLOUDY    30  25  82 N/A        N/A
* DEARBORN     N/A       37  28  70 S4         N/A
* EAST GLACIER N/A       33  25  72 W4G11      N/A
* MONARCH      N/A       44  19  37 S12        N/A
* PENDROY      N/A       39  26  60 W6         N/A   WCI  35
* ROGERS PASS  N/A       40  23  51 NW2        N/A
* SAINT MARY   N/A       29  25  85 S2         N/A
* SWEET GRASS  N/A       43  22  43 S13        N/A
* WHITE SULPH  N/A       43  22  43 NE8G13     N/A
$$

MTZ011-013-016-021-035-040-045-047-050-051-221300-
NORTH CENTRAL MONTANA
CITY           SKY/WX    TMP DP  RH WIND       PRES   REMARKS
HAVRE          MOCLDY    57  23  27 SE9       29.72F
LEWISTOWN      CLOUDY    45  27  49 S7        29.78F
* CHINOOK      MOCLDY    46  25  44 E12       29.75F
* FORT BENTON  CLOUDY    48  25  41 S3        29.73F
* CHESTER      N/A       44  22  42 S1         N/A
* DENTON       N/A       52  28  40 S14G20     N/A
* GEYSER       N/A       39  26  60 SW6        N/A   WCI  35
* JUDITH GAP   N/A       43  25  49 SW9        N/A
* LOMA         N/A       47  25  42 NE11       N/A
$$

MTZ017>020-022>027-061-062-221300-
NORTHEAST MONTANA
CITY           SKY/WX    TMP DP  RH WIND       PRES   REMARKS
GLASGOW        CLOUDY    45  28  51 E16       29.84F
JORDAN         PTCLDY    45  27  49 E6        29.82F
SIDNEY         MOCLDY    45  30  56 CALM      29.95F
WOLF POINT     MOCLDY    43  30  60 E9        29.90F
* BEAVER HILL  N/A       41  31  68 E20G27     N/A
* CIRCLE       N/A       47  27  46 SE5G12     N/A
* LINDSAY DVD  N/A       39  28  65 E8         N/A   WCI  33
* NAVAJO       N/A       36  29  76 E5         N/A   WCI  32
* SACO         N/A       43  28  56 NE12G17    N/A
* SCOBEY APT   PTCLDY    41  27  58 E14G20    29.89F
$$

MTZ028>042-056>058-221300-
SOUTHCENTRAL AND SOUTHEAST MONTANA
CITY           SKY/WX    TMP DP  RH WIND       PRES   REMARKS
BAKER          MOCLDY    39  32  76 E9        29.92F WCI  33
BILLINGS       CLOUDY    50  28  43 CALM      29.81F
LIVINGSTON     CLOUDY    45  28  51 VRB3      29.81F
MILES CITY     CLOUDY    43  30  60 NE8       29.83F
* EKALAKA APT  MOCLDY    45  27  49 E13       29.87F
* LAUREL APT   CLOUDY    46  28  50 N/A        N/A
* ROUNDUP APT  CLOUDY    48  25  41 N/A        N/A
* HYSHAM       N/A       46  23  40 E2         N/A
* LAME DEER    N/A       49  32  52 S9         N/A
* REED POINT   N/A       40  35  82 W4         N/A
* ROSCOE HILL  N/A       54  20  26 S6G11      N/A
$$

REGIONAL REPORTS...DAKOTAS
CITY           SKY/WX    TMP DP  RH WIND       PRES   REMARKS
WILLISTON      PTCLDY    41  30  65 NE5       29.98F
DICKINSON      PTCLDY    43  28  56 SE14      29.97F
CROSBY         CLEAR     39  32  76 SE7       30.00F WCI  34
TIOGA          CLEAR     28  28 100 E8        30.04F WCI  20
WATFORD CITY   CLEAR     34  28  79 NE6       29.96F WCI  29
BISMARCK       MOCLDY    30  28  92 NE8       30.08F WCI  22
GRAND FORKS    FOG       32  30  92 S5        30.13S WCI  27
FARGO          FOG       30  27  89 CALM      30.13S
BUFFALO SD     CLEAR     37  28  70 NE8       29.86F WCI  31
RAPID CITY     PTCLDY    36  28  73 SE6       29.92F WCI  31
$$

REGIONAL REPORTS...WYOMING/IDAHO/WASHINGTON
CITY           SKY/WX    TMP DP  RH WIND       PRES   REMARKS
GILLETTE       CLOUDY    45  32  60 S6        29.89F
SHERIDAN       CLOUDY    43  37  79 SW5       29.84F
CODY           CLOUDY    54  34  47 W15G20    29.86F
YELLOWSTONE LA CLOUDY    32  32 100 CALM      30.03F
SALMON         MOCLDY    39  27  62 CALM      29.71F
MULLAN PASS    CLOUDY    39  25  57 CALM      29.69S
SAND POINT     N/A       45  37  74 N3        29.69F
SPOKANE        CLOUDY    46  37  71 SW7       29.65F
$$

REGIONAL REPORTS...ALBERTA
CITY           SKY/WX    TMP DP  RH WIND       PRES   REMARKS
CALGARY        FAIR      36  27  70 N6        29.71F WCI  31
LETHBRIDGE     MOCLDY    32  27  82 S10       29.70F WCI  24
MEDICINE HAT   PTCLDY    52  25  35 VRB2      29.71F
EDMONTON       MOCLDY    39  25  57 E9        29.71F WCI  33
WATERTON GATE  N/A       28  25  89 SW2        N/A
CARDSTON       N/A       32  27  82 SW2        N/A
MILK RIVER     N/A       30  25  82 NW3        N/A
$$

REGIONAL REPORTS...SASKATCHEWAN
CITY           SKY/WX    TMP DP  RH WIND       PRES   REMARKS
SWIFT CURRENT  CLOUDY    41  27  58 SE10      29.83F
MOOSE JAW      MOCLDY    36  28  73 SE13      29.93F WCI  27
REGINA         MOCLDY    36  32  85 SE16      29.97F WCI  26
VAL MARIE      N/A       39  25  57 E7         N/A   WCI  34
ASSINIBOIA     N/A       37  30  76 SE10       N/A   WCI  30
CORONACH       N/A       37  32  82 E8         N/A   WCI  31

$$




USA.gov is the U.S. government's official web portal to all federal, state and local government web resources and services.